Temp
65 65 64 65 65 65 66 66 66 65 65 65 65 65 63 63 60 59 59 61 61 64 64 67 66 66 69 68 69 68 68 67 65 67 67 67 68 62 58 58 60 62 65 69 72 72 72 71 71 70 69 69 70 69 69 69 69 69 69 69 68 67 64 64 64 64 64 64 63 63 62 62 62 62
65 65 64 65 65 65 65 65 65 65 65 65 65 64 65 65 63 62 59 61 63 64 65 64 67 67 68 68 68 70 68 64 65 67 67 67 67 59 58 58 58 60 61 63 66 68 71 72 71 70 70 70 70 70 70 70 70 70 69 68 65 62 63 64 65 65 64 64 63 63 62 62 62 61
65 65 65 65 65 64 64 63 64 64 63 63 64 64 64 64 65 63 62 58 64 63 64 64 66 66 67 68 67 68 68 67 66 67 66 67 62 60 62 59 58 57 57 59 60 62 67 71 71 71 70 71 70 70 70 70 70 68 66 63 60 61 63 64 65 65 65 64 63 63 62 62 61 61
65 65 65 65 64 63 63 63 64 64 63 63 63 63 64 63 64 64 62 59 60 65 65 64 66 67 66 66 66 67 68 68 63 67 66 65 60 65 66 61 58 57 56 56 57 58 63 68 70 70 70 70 69 69 69 69 66 63 61 60 60 60 62 64 65 65 65 64 63 63 62 62 61 61
65 65 65 65 64 64 63 65 64 63 63 63 63 63 63 62 63 63 61 60 61 64 65 64 64 66 65 66 66 66 66 67 68 65 67 66 65 65 66 66 60 57 56 55 55 55 56 60 63 66 68 68 66 67 66 62 61 61 61 60 59 59 60 63 65 65 65 64 63 63 62 62 62 61
64 64 64 64 65 64 65 64 64 63 63 63 63 62 62 62 61 62 62 62 60 59 64 63 62 63 63 64 67 66 65 65 66 65 67 67 66 65 66 67 65 57 57 55 54 54 53 55 56 59 65 64 57 57 58 57 59 61 59 59 58 57 57 60 64 65 64 64 63 63 63 62 61 60
62 61 61 63 64 63 63 62 62 62 63 63 63 62 61 61 60 61 63 62 60 60 61 64 63 62 62 63 66 67 66 64 64 65 65 64 65 67 67 66 66 58 56 55 54 53 53 53 54 54 60 59 56 55 56 55 55 56 56 55 55 55 56 57 61 64 64 63 63 63 62 61 60 59
61 61 61 62 62 62 63 61 62 62 62 62 62 62 60 60 60 60 61 63 62 61 60 63 63 63 63 63 64 64 65 64 64 63 62 63 63 65 65 65 66 62 57 55 54 53 53 52 53 53 55 56 55 55 55 54 54 54 54 53 53 54 54 54 56 60 62 63 62 60 60 60 59 59
62 61 61 62 62 63 63 61 61 61 62 62 61 61 61 60 60 60 61 61 61 60 59 59 61 62 62 62 62 62 61 61 62 63 62 62 62 62 65 65 66 60 57 56 55 54 53 52 52 52 53 55 55 54 53 53 53 53 53 52 52 53 53 53 54 55 56 57 55 54 55 55 57 58
63 62 63 62 62 62 63 61 60 60 61 60 61 61 60 60 59 58 57 57 58 58 58 58 58 58 59 59 60 61 60 59 59 61 62 63 62 62 63 64 65 66 65 64 63 57 57 55 53 52 52 52 54 54 53 53 53 52 52 52 52 52 51 52 52 52 52 52 52 53 52 53 55 57
62 62 62 61 61 62 63 62 60 60 59 60 59 60 59 59 58 58 57 56 56 57 57 56 55 56 57 57 57 60 60 59 59 59 59 60 63 62 61 61 64 64 63 59 56 57 56 55 57 53 51 52 52 51 51 52 53 53 52 52 51 51 51 51 51 50 50 50 50 50 50 51 53 55
61 62 62 61 61 62 62 62 61 60 59 59 59 59 59 58 57 57 56 56 56 56 56 56 57 55 54 56 56 57 58 59 58 60 58 57 59 61 62 62 61 61 59 59 61 58 58 57 56 54 54 54 54 53 52 53 54 54 54 52 51 50 51 51 50 50 50 50 50 49 49 49 50 51
61 61 61 61 60 62 64 63 61 61 61 60 60 58 58 58 58 56 56 56 56 55 55 56 55 54 56 56 55 55 56 56 55 56 57 58 60 61 60 61 60 59 59 60 59 59 58 58 56 57 57 57 56 55 54 54 54 55 53 52 51 50 50 50 50 50 50 50 49 49 49 49 49 49
59 60 60 61 64 64 65 63 59 56 57 60 62 60 57 59 57 57 56 56 57 57 56 56 56 56 55 56 56 55 55 56 56 57 57 56 58 59 60 61 60 58 60 59 59 60 59 58 58 57 56 56 56 55 55 55 55 53 51 50 50 50 50 49 49 49 49 49 49 49 49 48 48 48
59 59 60 61 64 65 65 62 55 53 53 54 55 55 57 60 60 58 57 57 56 57 57 56 55 55 55 56 57 56 55 55 56 55 55 56 57 57 55 56 59 58 60 58 58 60 59 58 58 56 56 55 55 55 56 52 52 51 50 50 50 49 49 49 49 49 48 48 48 48 48 47 47 47
59 59 59 60 62 64 64 63 60 57 53 51 50 50 51 51 54 55 59 59 55 55 57 56 56 56 56 56 57 56 53 56 55 55 54 54 55 55 55 56 56 59 60 60 58 58 59 58 57 57 55 55 55 55 52 49 50 50 50 50 49 49 49 49 49 48 48 48 48 47 47 47 46 46
59 59 59 59 60 63 66 65 62 61 60 53 51 52 52 51 50 47 48 52 61 58 57 57 57 56 56 56 57 58 56 54 54 55 55 54 54 55 56 57 57 59 59 59 56 56 58 57 58 58 56 55 55 53 51 50 50 49 49 49 48 48 48 48 48 48 48 47 47 47 46 46 46 45
60 59 59 60 60 62 64 63 61 60 60 59 58 57 58 58 58 51 46 45 46 53 59 58 58 59 57 58 58 56 56 55 55 55 55 56 55 55 55 57 58 59 59 60 57 56 58 57 58 58 57 56 55 55 51 49 50 49 49 49 48 48 48 48 48 48 47 47 47 46 46 45 45 45
60 59 59 61 61 61 61 61 60 59 59 59 58 58 57 57 58 58 58 57 56 56 57 59 59 60 58 59 59 57 57 58 58 57 56 56 55 55 56 57 58 57 56 57 58 57 57 56 56 57 56 55 55 55 50 49 49 49 49 48 48 48 47 47 47 47 47 47 46 46 45 45 44 44
60 60 60 61 61 62 61 60 53 58 60 59 59 57 57 57 56 56 58 53 53 58 58 58 59 60 59 54 58 56 55 55 54 54 55 56 55 54 54 54 54 54 56 55 57 54 57 55 56 54 53 55 54 54 55 50 48 49 48 48 47 47 47 47 47 47 47 46 46 46 45 44 44 44
59 59 61 61 62 61 61 56 47 48 58 59 58 58 57 57 56 57 58 48 43 44 45 44 44 44 43 43 43 41 41 50 52 55 55 55 53 53 52 54 54 55 52 52 56 56 55 53 54 53 52 53 53 53 53 54 49 48 48 47 47 47 47 47 46 46 46 46 46 45 45 44 44 44
59 60 62 63 62 60 59 51 46 46 56 59 58 57 56 55 55 56 57 56 53 43 42 41 41 41 41 41 41 41 40 41 48 57 55 55 54 54 53 51 53 53 53 53 54 56 56 53 52 51 49 50 50 52 53 53 52 47 47 47 47 46 46 46 46 46 46 46 46 45 45 44 44 45
58 59 61 62 61 61 58 48 46 45 56 59 58 57 56 56 55 57 57 55 55 53 52 52 49 49 46 47 49 52 44 43 49 55 56 55 54 53 53 53 52 52 55 56 55 56 53 51 53 53 51 53 54 50 52 52 53 53 53 51 49 47 46 46 46 46 46 46 45 45 44 44 45 48
56 58 59 60 51 49 49 47 46 45 48 59 58 57 56 56 56 58 55 56 56 55 55 55 54 55 53 53 54 54 54 53 56 53 54 54 54 54 53 53 53 53 55 56 55 58 54 53 52 52 52 51 53 52 50 50 51 52 52 51 50 48 47 47 47 46 45 45 45 45 44 44 46 48
57 56 57 59 54 47 47 47 45 45 45 52 58 56 57 58 57 53 56 56 56 54 54 54 54 53 53 53 52 52 53 53 53 53 53 54 54 54 53 53 53 54 56 57 50 58 55 54 54 53 52 53 50 49 49 49 50 50 50 50 50 51 50 50 50 49 46 45 45 44 44 45 46 47
56 57 58 58 54 47 46 45 45 45 45 45 57 56 50 49 45 55 55 55 56 54 54 53 52 52 53 54 54 53 54 54 54 54 53 52 53 53 54 53 53 52 55 55 46 58 55 54 56 53 53 51 52 49 49 49 48 48 49 50 51 50 48 48 49 49 49 48 47 45 45 44 45 45
58 58 57 57 54 45 45 45 44 44 43 46 53 48 45 45 43 50 55 53 53 53 53 52 53 52 51 52 53 53 54 53 51 52 52 52 52 52 53 54 55 56 57 54 54 57 57 55 53 55 54 53 53 50 49 51 50 46 47 49 49 50 51 51 49 48 48 48 48 45 44 44 45 45
59 57 57 55 48 45 44 43 43 43 44 49 47 44 43 41 43 53 52 52 53 52 51 51 51 52 52 50 51 52 52 52 51 51 51 51 52 51 51 51 52 55 54 54 53 54 56 55 53 54 55 54 53 51 52 53 51 49 49 48 46 48 50 51 51 50 49 49 48 46 46 46 47 47
59 53 49 48 45 45 45 44 42 42 43 43 44 43 41 46 49 49 51 51 51 51 51 52 52 52 52 53 53 52 51 50 50 50 50 49 48 48 49 49 48 49 50 51 52 53 54 54 54 53 53 53 52 52 52 53 53 50 49 46 46 48 49 50 50 49 48 48 48 46 46 46 47 48
50 48 46 45 44 44 47 49 49 50 49 42 41 40 43 49 49 48 49 49 50 52 52 51 51 53 52 51 51 50 49 49 50 50 50 51 51 49 50 51 50 48 48 49 51 50 52 52 52 52 52 52 52 51 52 51 50 50 47 48 48 46 46 48 48 49 49 48 48 46 48 49 48 47
53 49 48 48 46 47 46 47 46 48 46 43 44 44 46 48 48 48 50 51 52 52 52 51 52 51 50 49 48 49 49 49 49 49 49 50 50 49 47 49 51 51 50 48 48 48 49 49 50 51 49 50 52 52 53 52 50 48 46 47 47 47 48 48 49 48 48 47 48 48 48 48 48 47
52 51 47 46 48 48 47 48 48 48 47 45 45 45 46 47 47 48 50 51 51 51 52 51 49 48 48 49 49 48 48 48 49 49 49 50 48 45 46 50 50 49 50 49 49 48 47 49 49 50 51 51 49 51 51 51 50 50 49 47 47 48 46 46 46 48 48 48 46 45 47 48 48 47
50 49 50 48 47 47 48 46 48 47 46 46 46 46 46 46 45 46 48 50 50 50 48 50 50 50 48 48 48 47 47 48 48 48 49 49 50 44 46 50 51 50 51 51 48 48 47 46 46 47 49 49 51 51 49 47 50 52 51 49 47 48 48 47 47 46 47 46 45 45 44 47 48 48
50 51 53 52 50 49 48 49 48 48 48 49 48 47 44 46 46 46 48 50 52 50 49 50 48 49 47 48 47 47 47 48 48 46 45 47 46 46 46 47 48 48 46 48 48 47 44 44 45 47 48 48 49 49 50 49 49 52 53 51 49 48 50 49 48 48 48 46 45 44 44 44 47 49
51 51 51 51 50 50 50 50 51 50 49 49 50 50 48 47 47 46 48 50 49 48 49 48 48 48 47 48 48 48 48 49 48 46 44 46 44 47 48 47 49 48 46 46 46 43 41 44 45 47 48 48 48 50 48 50 49 50 52 52 51 49 49 48 47 48 48 47 47 44 44 44 44 48
49 52 52 52 50 50 50 50 51 51 51 51 51 52 49 49 49 49 49 50 50 49 48 48 46 47 48 48 48 48 48 47 48 48 46 45 45 45 46 48 49 48 47 47 47 42 40 43 44 46 44 44 42 42 46 46 46 49 48 48 50 50 49 47 46 47 46 46 46 46 44 44 44 46
51 52 53 53 52 51 50 52 52 52 52 52 52 53 52 52 51 51 52 49 49 49 49 50 49 49 48 47 47 45 46 47 48 47 47 47 47 47 47 46 45 46 46 46 44 42 40 42 42 45 43 42 40 40 42 49 47 46 49 47 48 49 49 46 44 43 45 47 46 46 46 46 45 45
52 53 53 52 52 52 52 52 52 52 52 52 53 53 53 54 55 53 51 50 50 49 49 49 49 48 49 48 48 48 47 48 48 48 47 47 47 46 47 48 48 47 47 45 42 42 40 43 43 43 43 41 40 39 40 45 46 48 45 47 46 47 47 44 43 42 43 45 46 47 47 47 47 49
54 53 53 53 53 53 52 52 52 52 52 53 52 53 53 53 54 52 50 51 51 51 50 49 50 49 50 49 49 49 49 48 46 47 48 47 48 49 47 47 47 47 46 45 42 40 39 41 42 43 43 43 42 42 44 42 41 45 45 42 44 45 45 45 44 46 45 44 44 46 46 45 45 42
52 53 54 53 54 54 54 53 53 54 53 53 53 54 54 53 53 53 52 51 51 51 51 49 50 49 49 50 48 49 49 49 49 50 49 49 47 47 48 49 49 48 46 46 44 43 41 42 42 44 45 46 48 48 46 43 44 44 42 43 42 43 45 46 45 45 44 46 45 43 41 43 42 42
50 51 53 54 55 55 55 55 54 54 54 54 54 52 54 54 54 54 53 53 50 51 50 51 50 50 51 50 50 50 48 46 49 50 49 49 47 45 44 40 46 46 46 46 47 44 43 47 44 37 41 45 44 45 43 43 43 45 43 42 42 42 41 42 46 46 44 45 44 42 40 40 41 40
49 50 52 54 54 54 55 55 55 55 55 54 54 54 53 54 54 50 50 48 52 51 52 51 51 49 51 51 50 46 49 47 47 47 48 49 48 45 39 43 46 44 45 46 48 47 47 43 38 39 42 43 44 43 42 43 42 44 43 43 43 42 41 41 43 45 47 45 42 38 40 40 40 38
49 51 51 52 52 53 53 52 54 54 54 55 54 54 54 53 54 53 53 52 52 50 51 51 52 51 51 51 50 49 48 47 48 49 49 48 48 48 45 45 47 48 46 47 43 41 40 41 43 45 45 45 42 40 43 42 42 42 41 43 42 42 41 41 41 43 44 45 44 45 45 42 40 38
52 51 52 53 52 53 53 53 54 55 55 55 55 55 54 54 53 53 54 53 51 50 51 50 49 49 50 50 48 48 49 49 50 49 47 46 46 49 49 47 45 47 47 44 40 39 39 41 43 45 43 43 41 42 42 41 43 42 41 40 39 39 39 40 41 41 40 40 38 39 42 43 42 43
53 53 53 53 54 54 54 54 54 54 54 54 54 54 53 53 52 54 54 53 52 52 49 49 48 48 49 46 45 45 45 45 47 47 47 45 46 45 43 47 44 44 44 44 40 37 37 40 41 44 43 42 40 41 41 41 41 40 39 38 37 38 39 38 38 39 39 39 39 37 38 41 44 42
MSLP
1019.02 1019.10 1019.22 1019.26 1019.30 1019.30 1019.30 1019.42 1019.46 1019.74 1019.90 1019.98 1019.98 1020.10 1020.42 1020.58 1021.14 1021.30 1021.14 1020.74 1020.54 1019.78 1019.54 1019.70 1018.98 1018.78 1018.66 1018.62 1018.42 1018.42 1018.42 1018.46 1018.42 1018.34 1018.26 1018.18 1018.06 1018.06 1018.14 1018.10 1017.94 1017.66 1017.42 1017.30 1017.22 1017.22 1017.34 1017.42 1017.54 1017.74 1017.94 1018.10 1018.38 1018.66 1018.94 1019.18 1019.42 1019.58 1019.70 1019.82 1019.98 1020.22 1020.54 1020.86 1021.06 1021.22 1021.34 1021.50 1021.70 1021.82 1021.90 1021.98 1022.10 1022.18
1018.78 1018.86 1019.02 1019.10 1019.14 1019.06 1019.14 1019.18 1019.30 1019.42 1019.62 1019.74 1019.90 1020.10 1020.14 1020.26 1020.74 1020.90 1021.22 1020.90 1020.38 1020.10 1019.58 1019.62 1019.46 1018.98 1018.90 1018.70 1018.58 1018.42 1018.38 1018.34 1018.30 1018.26 1018.22 1018.14 1018.10 1018.14 1018.18 1018.18 1018.06 1017.82 1017.54 1017.46 1017.26 1017.22 1017.22 1017.30 1017.46 1017.70 1017.94 1018.06 1018.34 1018.62 1018.86 1019.10 1019.26 1019.46 1019.66 1019.74 1019.94 1020.26 1020.54 1020.78 1020.98 1021.10 1021.26 1021.46 1021.70 1021.86 1021.98 1022.06 1022.18 1022.30
1018.58 1018.70 1018.90 1018.98 1019.14 1019.42 1019.66 1019.78 1019.70 1019.82 1019.98 1019.94 1019.82 1019.98 1020.10 1020.14 1020.34 1020.54 1020.82 1021.22 1020.22 1020.02 1020.06 1019.66 1019.42 1019.38 1019.06 1018.82 1018.74 1018.54 1018.42 1018.34 1018.30 1018.26 1018.14 1018.02 1017.98 1017.98 1017.98 1018.10 1018.10 1017.94 1017.78 1017.66 1017.50 1017.38 1017.26 1017.26 1017.42 1017.66 1017.82 1017.94 1018.18 1018.42 1018.66 1018.86 1019.14 1019.38 1019.58 1019.78 1019.98 1020.18 1020.42 1020.66 1020.86 1021.02 1021.18 1021.38 1021.66 1021.86 1021.98 1022.14 1022.26 1022.34
1018.30 1018.54 1018.66 1018.70 1018.82 1018.86 1019.06 1019.14 1019.14 1019.18 1019.34 1019.42 1019.54 1019.70 1019.82 1019.98 1020.06 1020.26 1020.66 1020.86 1020.58 1019.86 1019.94 1019.86 1019.50 1019.22 1019.18 1018.94 1018.82 1018.66 1018.46 1018.30 1018.34 1018.30 1018.18 1018.06 1017.94 1017.78 1017.78 1017.82 1017.90 1017.90 1017.86 1017.90 1017.82 1017.66 1017.50 1017.38 1017.50 1017.62 1017.66 1017.70 1017.74 1017.74 1017.98 1018.38 1018.82 1019.18 1019.50 1019.74 1019.98 1020.18 1020.38 1020.58 1020.74 1020.90 1021.10 1021.34 1021.58 1021.74 1021.94 1022.10 1022.22 1022.38
1018.22 1018.34 1018.46 1018.54 1018.58 1018.58 1018.70 1018.70 1018.86 1019.02 1019.06 1019.22 1019.30 1019.46 1019.70 1019.90 1020.02 1020.26 1020.50 1020.70 1020.46 1019.86 1019.66 1019.74 1019.62 1019.26 1019.14 1018.98 1018.78 1018.74 1018.54 1018.38 1018.22 1018.18 1018.14 1018.06 1017.98 1017.86 1017.78 1017.74 1017.78 1017.78 1017.78 1017.82 1017.82 1017.78 1017.70 1017.66 1017.62 1017.62 1017.54 1017.38 1017.38 1017.70 1017.82 1018.06 1018.42 1018.78 1019.18 1019.54 1019.90 1020.14 1020.34 1020.50 1020.70 1020.86 1021.02 1021.30 1021.54 1021.70 1021.90 1022.02 1022.18 1022.34
1018.22 1018.46 1018.54 1018.54 1018.62 1018.58 1018.54 1018.54 1018.66 1018.74 1018.86 1019.02 1019.22 1019.38 1019.46 1019.66 1019.90 1019.94 1020.22 1020.38 1020.54 1020.30 1019.74 1019.70 1019.50 1019.42 1019.26 1019.18 1018.70 1018.82 1018.70 1018.50 1018.30 1018.18 1018.06 1018.02 1017.98 1017.94 1017.82 1017.74 1017.70 1017.74 1017.70 1017.66 1017.66 1017.78 1017.78 1017.74 1017.70 1017.62 1017.54 1017.38 1017.74 1017.82 1017.82 1017.98 1018.18 1018.54 1018.94 1019.34 1019.74 1020.02 1020.26 1020.46 1020.62 1020.78 1020.98 1021.26 1021.50 1021.70 1021.86 1021.98 1022.14 1022.34
1019.26 1019.30 1019.50 1019.42 1018.90 1018.82 1018.82 1018.74 1018.70 1018.74 1018.78 1018.90 1019.06 1019.26 1019.46 1019.50 1019.66 1019.82 1019.86 1020.10 1020.30 1020.26 1019.90 1019.66 1019.66 1019.50 1019.34 1019.30 1018.94 1018.74 1018.66 1018.62 1018.50 1018.34 1018.14 1018.10 1018.02 1017.90 1017.86 1017.82 1017.70 1017.70 1017.66 1017.58 1017.54 1017.58 1017.74 1017.78 1017.70 1017.66 1017.50 1017.54 1017.74 1017.86 1017.94 1018.10 1018.30 1018.58 1018.86 1019.22 1019.58 1019.94 1020.18 1020.42 1020.58 1020.74 1020.94 1021.18 1021.42 1021.66 1021.86 1022.02 1022.22 1022.42
1018.02 1018.26 1018.62 1018.86 1018.98 1018.98 1018.90 1018.74 1018.74 1018.78 1018.78 1018.86 1019.02 1019.26 1019.38 1019.46 1019.54 1019.66 1019.74 1019.82 1019.98 1020.10 1020.18 1019.62 1019.70 1019.50 1019.50 1019.22 1019.02 1018.90 1018.70 1018.62 1018.54 1018.50 1018.30 1018.10 1018.10 1018.02 1017.98 1017.94 1017.82 1017.70 1017.62 1017.58 1017.46 1017.42 1017.54 1017.70 1017.66 1017.70 1017.54 1017.50 1017.70 1017.74 1017.86 1018.22 1018.50 1018.74 1019.06 1019.34 1019.62 1019.86 1020.14 1020.38 1020.58 1020.74 1020.94 1021.14 1021.38 1021.58 1021.78 1022.02 1022.26 1022.50
1017.98 1018.06 1018.18 1018.22 1018.38 1018.54 1018.54 1018.66 1018.66 1018.70 1018.74 1018.86 1019.02 1019.14 1019.34 1019.46 1019.66 1019.82 1019.86 1019.90 1019.94 1020.10 1020.18 1019.98 1019.62 1019.58 1019.54 1019.34 1019.22 1019.10 1019.06 1018.78 1018.58 1018.46 1018.42 1018.30 1018.18 1018.14 1018.02 1017.98 1017.90 1017.82 1017.70 1017.58 1017.50 1017.38 1017.38 1017.46 1017.50 1017.54 1017.58 1017.34 1017.42 1017.70 1017.94 1018.26 1018.50 1018.86 1019.26 1019.62 1019.86 1020.06 1020.26 1020.46 1020.62 1020.82 1021.02 1021.22 1021.46 1021.66 1021.82 1022.10 1022.30 1022.50
1017.50 1017.50 1017.50 1017.54 1017.62 1017.82 1017.86 1017.94 1018.22 1018.54 1018.58 1018.82 1018.98 1019.14 1019.30 1019.42 1019.58 1019.74 1019.94 1020.10 1020.22 1020.30 1020.18 1020.14 1019.98 1019.74 1019.74 1019.58 1019.42 1019.22 1019.26 1019.18 1018.82 1018.50 1018.38 1018.26 1018.26 1018.22 1018.18 1018.14 1018.02 1017.86 1017.78 1017.66 1017.58 1017.50 1017.42 1017.30 1017.34 1017.42 1017.50 1017.58 1017.34 1017.26 1017.74 1018.06 1018.38 1018.78 1019.18 1019.54 1019.78 1020.06 1020.38 1020.62 1020.70 1020.86 1021.06 1021.30 1021.54 1021.78 1021.94 1022.14 1022.38 1022.54
1017.30 1017.42 1017.58 1017.74 1017.82 1017.74 1017.50 1017.50 1017.78 1018.14 1018.46 1018.70 1018.86 1018.98 1019.14 1019.30 1019.42 1019.58 1019.78 1019.94 1020.02 1020.10 1020.14 1020.10 1020.10 1020.06 1019.86 1019.90 1019.62 1019.30 1019.34 1019.22 1019.06 1018.90 1018.74 1018.50 1018.34 1018.34 1018.38 1018.26 1018.10 1018.02 1017.98 1017.94 1017.90 1017.82 1017.74 1017.58 1017.34 1017.38 1017.70 1017.74 1017.94 1018.34 1018.34 1018.42 1018.50 1018.74 1018.90 1019.02 1019.30 1019.82 1020.30 1020.66 1020.86 1021.02 1021.18 1021.38 1021.58 1021.82 1021.98 1022.18 1022.38 1022.54
1016.94 1016.94 1017.10 1017.22 1017.34 1017.38 1017.50 1017.58 1017.74 1017.90 1018.30 1018.58 1018.70 1018.94 1019.02 1019.18 1019.26 1019.42 1019.66 1019.82 1019.90 1019.98 1020.02 1020.02 1020.02 1020.10 1020.06 1019.90 1019.86 1019.66 1019.30 1019.06 1018.98 1019.02 1019.14 1018.86 1018.58 1018.34 1018.30 1018.26 1018.26 1018.26 1018.26 1018.18 1017.98 1017.94 1017.86 1017.78 1017.66 1017.50 1017.46 1017.58 1017.86 1018.10 1018.62 1018.66 1018.46 1018.46 1018.66 1019.18 1019.58 1019.82 1020.26 1020.54 1020.74 1021.02 1021.22 1021.42 1021.62 1021.82 1022.02 1022.22 1022.38 1022.54
1016.70 1016.74 1016.94 1017.10 1017.06 1017.14 1017.26 1017.42 1017.54 1017.62 1017.70 1018.06 1018.46 1018.78 1018.86 1018.94 1019.10 1019.34 1019.50 1019.58 1019.70 1019.78 1019.86 1019.82 1020.02 1020.06 1019.90 1019.74 1019.78 1019.62 1019.38 1019.46 1019.70 1019.62 1019.30 1018.94 1018.62 1018.42 1018.34 1018.30 1018.42 1018.46 1018.46 1018.38 1018.26 1018.22 1018.22 1018.06 1018.10 1017.94 1017.70 1017.74 1017.98 1018.38 1018.74 1018.98 1018.86 1018.74 1018.86 1019.14 1019.66 1020.06 1020.26 1020.42 1020.70 1020.98 1021.26 1021.50 1021.70 1021.90 1022.06 1022.30 1022.46 1022.62
1016.74 1016.74 1016.82 1016.86 1016.86 1016.98 1017.18 1017.34 1017.42 1017.50 1017.66 1017.74 1017.90 1018.26 1018.58 1018.70 1018.86 1019.02 1019.18 1019.34 1019.42 1019.58 1019.62 1019.66 1019.74 1019.78 1019.66 1019.54 1019.58 1019.70 1019.46 1019.58 1019.66 1019.46 1019.30 1019.18 1018.90 1018.54 1018.38 1018.26 1018.30 1018.46 1018.38 1018.42 1018.34 1018.22 1018.22 1018.22 1018.22 1018.26 1018.30 1018.10 1017.98 1018.14 1018.38 1018.62 1018.74 1018.90 1019.26 1019.66 1019.94 1020.22 1020.50 1020.78 1020.98 1021.26 1021.50 1021.70 1021.86 1021.98 1022.18 1022.42 1022.58 1022.74
1016.50 1016.58 1016.62 1016.70 1016.74 1016.94 1017.14 1017.30 1017.34 1017.50 1017.62 1017.70 1017.78 1017.94 1018.10 1018.26 1018.42 1018.74 1018.94 1019.02 1019.26 1019.38 1019.42 1019.46 1019.62 1019.66 1019.58 1019.38 1019.38 1019.54 1019.46 1019.46 1019.54 1019.54 1019.54 1019.42 1019.06 1018.86 1018.74 1018.62 1018.30 1018.42 1018.30 1018.38 1018.38 1018.14 1018.18 1018.30 1018.22 1018.46 1018.58 1018.58 1018.54 1018.42 1018.30 1018.50 1018.86 1018.98 1019.14 1019.38 1019.66 1019.94 1020.26 1020.70 1021.14 1021.50 1021.74 1021.86 1021.94 1022.06 1022.26 1022.54 1022.74 1022.86
1016.18 1016.34 1016.50 1016.66 1016.74 1016.82 1016.90 1017.06 1017.26 1017.42 1017.54 1017.70 1017.82 1017.94 1018.10 1018.26 1018.26 1018.30 1018.46 1018.70 1019.18 1019.30 1019.22 1019.30 1019.26 1019.42 1019.38 1019.26 1019.22 1019.26 1019.34 1019.18 1019.30 1019.42 1019.58 1019.46 1019.22 1019.02 1018.90 1018.74 1018.58 1018.34 1018.26 1018.22 1018.42 1018.30 1018.30 1018.38 1018.34 1018.42 1018.70 1018.78 1018.74 1018.66 1018.54 1018.74 1019.02 1019.18 1019.22 1019.50 1019.82 1020.14 1020.38 1020.66 1020.82 1021.10 1021.62 1021.94 1022.06 1022.18 1022.38 1022.62 1022.86 1023.02
1016.02 1016.26 1016.42 1016.66 1016.70 1016.66 1016.70 1016.86 1017.10 1017.34 1017.58 1017.86 1017.90 1017.90 1018.06 1018.26 1018.38 1018.42 1018.46 1018.42 1018.50 1018.74 1018.94 1019.02 1019.06 1019.10 1019.14 1019.10 1018.94 1018.94 1019.10 1019.54 1019.34 1019.30 1019.30 1019.42 1019.34 1019.18 1018.94 1018.70 1018.54 1018.22 1018.30 1018.30 1018.46 1018.46 1018.38 1018.42 1018.30 1018.22 1018.58 1018.78 1018.90 1018.90 1018.86 1018.82 1019.02 1019.14 1019.02 1019.26 1019.66 1019.98 1020.14 1020.38 1020.82 1021.10 1021.34 1021.74 1021.98 1022.14 1022.38 1022.66 1022.94 1023.10
1015.74 1015.94 1016.10 1016.34 1016.50 1016.54 1016.58 1016.74 1017.02 1017.22 1017.46 1017.74 1017.98 1018.14 1018.22 1018.26 1018.34 1018.46 1018.46 1018.50 1018.66 1018.66 1018.62 1018.70 1018.78 1018.66 1018.94 1018.82 1018.70 1018.98 1019.14 1019.10 1019.14 1019.22 1019.18 1019.14 1019.14 1019.10 1019.06 1018.90 1018.70 1018.46 1018.38 1018.22 1018.38 1018.46 1018.26 1018.54 1018.26 1017.98 1018.46 1018.70 1018.86 1018.90 1018.98 1019.06 1019.10 1019.18 1019.18 1019.26 1019.50 1019.90 1020.14 1020.46 1020.74 1021.06 1021.38 1021.70 1021.94 1022.22 1022.42 1022.70 1023.02 1023.22
1015.38 1015.62 1015.74 1015.82 1015.90 1016.18 1016.50 1016.62 1016.78 1017.02 1017.26 1017.54 1017.74 1017.90 1017.98 1018.10 1018.10 1018.14 1018.18 1018.30 1018.38 1018.50 1018.54 1018.50 1018.42 1018.38 1018.62 1018.58 1018.58 1018.82 1018.90 1018.82 1018.90 1019.02 1019.06 1019.10 1019.14 1019.14 1019.02 1018.74 1018.54 1018.46 1018.50 1018.42 1018.42 1018.14 1018.38 1018.74 1018.66 1018.50 1018.62 1018.74 1018.86 1018.94 1019.02 1019.14 1019.26 1019.34 1019.42 1019.54 1019.66 1019.82 1020.10 1020.34 1020.66 1020.98 1021.38 1021.78 1022.02 1022.34 1022.66 1022.86 1023.14 1023.38
1015.22 1015.34 1015.46 1015.62 1015.74 1015.86 1016.10 1016.22 1016.50 1016.66 1016.98 1017.30 1017.50 1017.66 1017.78 1017.94 1018.10 1018.10 1017.94 1018.02 1018.18 1018.18 1018.18 1018.22 1018.22 1018.22 1018.38 1018.50 1018.58 1018.70 1018.74 1018.78 1018.90 1018.94 1018.94 1018.94 1019.02 1019.10 1019.02 1018.78 1018.50 1018.22 1018.54 1018.62 1018.46 1018.62 1018.34 1018.78 1018.58 1018.66 1018.98 1018.90 1018.90 1019.02 1019.02 1019.14 1019.30 1019.46 1019.62 1019.78 1019.94 1020.06 1020.10 1020.34 1020.62 1020.94 1021.26 1021.54 1021.78 1022.14 1022.46 1022.66 1023.14 1023.42
1014.94 1015.06 1015.14 1015.22 1015.38 1015.58 1015.74 1015.90 1016.30 1016.58 1016.86 1017.10 1017.26 1017.42 1017.62 1017.82 1017.98 1017.86 1017.86 1018.06 1018.14 1018.22 1018.30 1018.34 1018.42 1018.50 1018.62 1018.66 1018.74 1018.78 1018.90 1018.78 1018.78 1018.74 1018.54 1018.50 1018.86 1018.90 1018.82 1018.58 1018.42 1018.22 1018.62 1018.58 1018.50 1018.46 1018.30 1018.74 1018.82 1018.82 1019.10 1019.06 1018.94 1019.02 1019.18 1019.26 1019.42 1019.54 1019.62 1019.78 1019.94 1020.14 1020.26 1020.42 1020.62 1020.86 1021.14 1021.50 1021.78 1022.02 1022.34 1022.82 1023.02 1023.46
1014.74 1014.70 1014.70 1014.78 1014.98 1015.22 1015.46 1015.70 1016.06 1016.38 1016.70 1016.90 1017.06 1017.26 1017.50 1017.78 1017.86 1017.66 1017.74 1017.94 1017.98 1018.22 1018.38 1018.46 1018.50 1018.58 1018.66 1018.74 1018.78 1018.82 1018.90 1018.86 1018.78 1018.46 1018.42 1018.54 1018.86 1018.94 1018.98 1018.90 1018.58 1018.54 1018.50 1018.18 1018.42 1018.34 1018.30 1018.66 1018.86 1018.70 1019.06 1018.98 1018.94 1018.94 1019.06 1019.22 1019.38 1019.66 1019.78 1019.82 1019.90 1020.06 1020.22 1020.38 1020.54 1020.74 1021.10 1021.38 1021.66 1022.02 1022.26 1022.70 1023.26 1023.58
1014.62 1014.66 1014.58 1014.58 1014.66 1014.82 1014.98 1015.30 1015.70 1016.14 1016.42 1016.54 1016.70 1016.94 1017.26 1017.46 1017.50 1017.26 1017.38 1017.54 1017.66 1017.86 1018.02 1018.06 1018.26 1018.30 1018.50 1018.58 1018.54 1018.50 1018.66 1018.74 1018.66 1018.54 1018.46 1018.66 1018.74 1018.78 1018.74 1018.82 1018.82 1018.42 1017.94 1018.10 1018.22 1017.98 1018.46 1018.58 1018.70 1018.70 1018.58 1018.22 1018.38 1019.02 1019.06 1019.14 1019.22 1019.42 1019.62 1019.90 1020.02 1020.10 1020.26 1020.46 1020.58 1020.66 1021.02 1021.34 1021.62 1021.94 1022.18 1022.42 1022.86 1023.34
1014.50 1014.50 1014.46 1014.38 1014.50 1014.58 1014.78 1015.02 1015.34 1015.74 1016.14 1016.10 1016.38 1016.74 1016.98 1017.14 1017.06 1016.94 1017.26 1017.26 1017.34 1017.42 1017.50 1017.54 1017.74 1017.86 1018.10 1018.22 1018.30 1018.34 1018.38 1018.42 1018.34 1018.38 1018.38 1018.46 1018.54 1018.62 1018.62 1018.62 1018.66 1018.50 1018.06 1018.06 1018.18 1017.90 1018.50 1018.74 1018.58 1018.94 1018.90 1018.86 1018.26 1018.78 1019.30 1019.34 1019.30 1019.30 1019.46 1019.70 1019.90 1020.10 1020.38 1020.58 1020.74 1020.78 1020.86 1021.22 1021.54 1021.82 1022.14 1022.18 1022.54 1023.06
1013.98 1014.22 1014.22 1014.14 1014.10 1014.42 1014.70 1014.94 1015.18 1015.50 1015.78 1015.78 1016.02 1016.30 1016.38 1016.34 1016.34 1016.70 1016.90 1016.98 1017.18 1017.22 1017.34 1017.50 1017.70 1017.78 1017.90 1018.02 1018.14 1018.14 1018.14 1018.10 1018.14 1018.14 1018.22 1018.26 1018.30 1018.34 1018.46 1018.50 1018.46 1018.22 1017.94 1017.94 1018.10 1018.10 1018.22 1018.46 1018.54 1018.94 1019.10 1018.98 1018.90 1018.78 1019.06 1019.38 1019.18 1019.26 1019.34 1019.50 1019.70 1019.94 1020.22 1020.50 1020.70 1020.94 1021.10 1021.18 1021.42 1021.70 1022.02 1022.06 1022.34 1022.66
1013.62 1013.54 1013.62 1013.78 1013.86 1014.22 1014.54 1014.82 1015.02 1015.18 1015.46 1015.70 1015.82 1015.90 1015.78 1016.10 1016.54 1016.42 1016.58 1016.78 1017.02 1017.14 1017.34 1017.50 1017.58 1017.62 1017.66 1017.66 1017.70 1017.74 1017.78 1017.82 1017.90 1017.98 1017.98 1018.02 1018.02 1018.02 1018.02 1018.10 1018.10 1018.14 1017.90 1017.86 1018.02 1018.02 1018.18 1018.38 1018.34 1018.58 1018.90 1019.06 1018.82 1019.10 1018.78 1018.66 1019.10 1019.26 1019.30 1019.34 1019.46 1019.70 1020.02 1020.34 1020.62 1020.86 1021.06 1021.26 1021.58 1021.82 1022.06 1022.14 1022.22 1022.58
1013.02 1013.10 1013.30 1013.46 1013.66 1014.02 1014.34 1014.70 1014.98 1015.26 1015.38 1015.66 1015.50 1015.42 1015.74 1016.10 1016.26 1016.46 1016.58 1016.78 1016.90 1017.02 1017.18 1017.34 1017.14 1017.30 1017.46 1017.50 1017.42 1017.46 1017.46 1017.66 1017.82 1017.74 1017.66 1017.66 1017.74 1017.78 1017.78 1017.78 1017.78 1017.74 1017.82 1017.90 1018.06 1017.94 1018.10 1018.22 1018.42 1018.30 1018.50 1018.66 1018.58 1018.82 1018.98 1018.58 1018.50 1019.42 1019.46 1019.42 1019.50 1019.54 1019.74 1019.98 1020.22 1020.54 1020.82 1021.10 1021.34 1021.74 1022.06 1022.14 1022.06 1022.26
1012.70 1013.02 1013.22 1013.38 1013.58 1013.86 1014.30 1014.66 1014.90 1015.02 1015.30 1015.26 1015.10 1015.34 1015.58 1015.98 1016.26 1016.38 1016.58 1016.70 1016.70 1016.86 1017.06 1017.06 1016.98 1016.90 1017.14 1017.42 1017.46 1017.38 1017.50 1017.54 1017.50 1017.46 1017.46 1017.42 1017.46 1017.54 1017.54 1017.58 1017.70 1017.74 1017.90 1017.94 1018.06 1018.10 1018.10 1018.26 1018.42 1018.42 1018.34 1018.46 1018.46 1018.46 1018.14 1018.18 1018.54 1019.02 1019.06 1019.42 1019.62 1019.58 1019.50 1019.66 1019.86 1020.18 1020.54 1020.82 1021.18 1021.62 1021.90 1022.10 1022.26 1022.42
1012.54 1012.70 1012.94 1013.30 1013.58 1013.78 1014.10 1014.14 1014.50 1014.86 1014.94 1014.94 1015.02 1015.26 1015.70 1016.06 1016.22 1016.22 1016.30 1016.38 1016.62 1016.70 1016.70 1016.54 1016.62 1016.74 1016.74 1016.94 1017.06 1017.34 1017.50 1017.54 1017.50 1017.42 1017.30 1017.30 1017.30 1017.38 1017.42 1017.58 1017.78 1017.90 1017.98 1017.98 1018.02 1018.06 1018.10 1018.18 1018.26 1018.38 1018.54 1018.50 1018.58 1018.30 1018.38 1018.02 1018.02 1018.46 1018.90 1019.30 1019.50 1019.34 1019.46 1019.50 1019.58 1019.82 1020.10 1020.42 1020.62 1020.94 1021.06 1021.34 1021.78 1022.02
1012.74 1013.02 1013.22 1013.42 1013.62 1013.70 1013.66 1014.06 1014.50 1014.62 1014.70 1014.82 1015.10 1015.42 1015.78 1015.86 1015.90 1016.02 1015.90 1016.14 1016.30 1016.10 1016.22 1016.34 1016.22 1016.06 1016.58 1016.94 1017.10 1017.34 1017.50 1017.42 1017.18 1017.22 1017.06 1016.94 1016.90 1017.18 1017.30 1017.38 1017.62 1017.94 1017.94 1017.94 1017.94 1018.02 1018.06 1018.14 1018.22 1018.34 1018.34 1018.38 1018.34 1018.34 1018.22 1018.26 1018.14 1018.18 1018.78 1018.78 1018.74 1019.10 1019.22 1019.22 1019.30 1019.50 1019.82 1020.06 1020.30 1020.66 1020.82 1021.06 1021.14 1021.42
1013.10 1013.10 1012.98 1012.86 1012.78 1013.18 1013.66 1013.94 1014.14 1014.34 1014.62 1015.10 1015.46 1015.66 1015.66 1015.50 1015.62 1015.74 1015.34 1015.22 1015.50 1015.70 1015.94 1016.02 1016.02 1016.34 1016.62 1016.94 1017.18 1017.22 1017.30 1017.18 1017.06 1017.10 1016.98 1016.94 1016.98 1017.10 1017.38 1017.30 1017.14 1017.42 1017.90 1017.94 1017.94 1018.02 1018.10 1018.18 1018.26 1018.26 1018.34 1018.30 1018.18 1018.06 1017.86 1017.98 1018.02 1018.02 1018.42 1018.54 1018.66 1018.22 1018.38 1018.94 1019.22 1019.38 1019.58 1020.10 1020.38 1020.74 1020.98 1021.14 1021.30 1021.38
1012.94 1012.74 1012.62 1013.02 1013.42 1013.58 1013.74 1014.02 1014.22 1014.38 1014.54 1014.58 1014.86 1015.18 1015.26 1015.34 1015.50 1015.58 1015.58 1015.58 1015.62 1015.66 1015.74 1015.82 1016.18 1016.42 1016.66 1016.74 1016.86 1017.10 1017.14 1017.06 1016.94 1016.94 1016.86 1016.70 1016.90 1017.26 1017.30 1016.98 1016.78 1016.82 1017.34 1017.74 1017.90 1018.02 1018.06 1018.14 1018.18 1018.22 1018.18 1018.14 1018.18 1017.94 1017.98 1017.90 1017.82 1017.70 1017.78 1018.14 1018.22 1018.06 1018.38 1018.62 1018.82 1019.02 1019.34 1019.62 1020.06 1020.38 1020.54 1020.70 1020.90 1021.14
1012.82 1012.66 1012.70 1012.86 1012.98 1013.18 1013.14 1013.34 1013.58 1013.90 1014.14 1014.46 1014.62 1014.74 1014.98 1015.14 1015.38 1015.46 1015.34 1015.06 1015.10 1015.34 1015.78 1015.62 1015.70 1015.90 1016.38 1016.54 1016.78 1016.94 1016.98 1016.78 1016.70 1016.70 1016.62 1016.66 1016.62 1017.34 1017.34 1016.78 1016.54 1016.58 1016.62 1016.94 1017.74 1017.98 1018.06 1018.22 1018.26 1018.22 1018.18 1018.14 1018.06 1018.02 1018.06 1017.94 1017.38 1017.14 1017.18 1017.46 1017.86 1017.82 1017.90 1018.14 1018.30 1018.58 1018.94 1019.46 1019.66 1019.90 1020.26 1020.34 1020.38 1020.50
1012.46 1012.46 1012.26 1012.42 1012.54 1012.66 1012.90 1012.98 1013.22 1013.34 1013.58 1013.82 1014.02 1014.22 1014.46 1014.78 1014.94 1015.06 1014.94 1014.78 1014.70 1015.18 1015.30 1015.34 1015.54 1015.62 1016.06 1016.22 1016.50 1016.62 1016.42 1016.34 1016.50 1016.42 1016.26 1016.42 1016.74 1016.74 1016.86 1016.70 1016.62 1017.02 1017.10 1017.02 1017.18 1017.58 1017.98 1018.22 1018.26 1018.18 1018.10 1018.02 1017.90 1017.82 1017.70 1017.62 1017.26 1016.82 1016.70 1016.90 1017.30 1017.38 1017.22 1017.66 1017.94 1018.06 1018.30 1018.42 1018.78 1019.50 1019.78 1019.94 1020.02 1020.14
1012.18 1012.26 1012.18 1012.02 1012.26 1012.30 1012.50 1012.50 1012.46 1012.70 1013.02 1013.10 1013.18 1013.30 1013.78 1014.14 1014.26 1014.46 1014.46 1014.38 1014.58 1014.94 1015.14 1015.26 1015.30 1015.50 1015.78 1015.66 1015.94 1015.98 1015.86 1015.86 1016.14 1016.22 1016.42 1016.50 1016.66 1016.46 1016.50 1016.38 1016.34 1016.74 1016.98 1017.02 1017.18 1017.70 1017.98 1018.10 1018.10 1017.94 1017.82 1017.74 1017.54 1017.22 1017.18 1017.22 1017.22 1016.90 1016.70 1016.58 1016.70 1016.86 1016.94 1017.22 1017.50 1017.74 1017.94 1018.30 1018.58 1018.86 1019.10 1019.46 1019.66 1019.54
1011.90 1011.78 1011.74 1011.74 1011.90 1012.06 1012.30 1012.14 1012.14 1012.30 1012.38 1012.46 1012.50 1012.66 1013.14 1013.38 1013.58 1013.74 1013.74 1013.74 1014.18 1014.46 1014.78 1014.78 1015.02 1015.30 1015.34 1015.42 1015.50 1015.62 1015.62 1015.74 1015.78 1015.82 1016.02 1016.30 1016.38 1016.54 1016.62 1016.42 1016.30 1016.50 1016.86 1016.78 1017.02 1017.94 1018.22 1018.10 1018.02 1017.82 1017.94 1017.90 1017.98 1017.74 1017.06 1016.98 1017.06 1016.98 1016.86 1016.54 1016.42 1016.50 1016.50 1016.90 1017.22 1017.38 1017.66 1017.90 1018.10 1018.26 1018.50 1018.50 1018.54 1019.14
1011.50 1011.42 1011.42 1011.30 1011.34 1011.66 1011.66 1011.58 1011.74 1011.90 1011.94 1011.98 1012.10 1012.18 1012.18 1012.26 1012.62 1012.94 1012.94 1013.42 1013.86 1014.02 1014.02 1014.18 1014.42 1014.66 1014.86 1015.02 1015.14 1015.30 1015.42 1015.46 1015.30 1015.54 1015.58 1015.90 1016.06 1016.18 1016.22 1016.26 1016.42 1016.54 1016.66 1016.78 1017.26 1017.66 1018.06 1017.74 1017.94 1017.78 1017.90 1017.94 1017.98 1017.94 1017.30 1016.94 1016.74 1016.74 1016.78 1016.62 1016.42 1016.34 1016.30 1016.66 1017.10 1017.38 1017.34 1017.26 1017.46 1017.62 1017.50 1017.50 1017.82 1018.22
1010.94 1010.98 1011.10 1011.10 1011.10 1011.10 1011.18 1011.18 1011.34 1011.50 1011.50 1011.58 1011.66 1011.78 1011.78 1011.66 1011.82 1012.26 1012.86 1013.22 1013.34 1013.54 1013.82 1013.94 1013.90 1014.22 1014.38 1014.58 1014.66 1014.78 1015.02 1015.14 1015.10 1015.10 1015.22 1015.50 1015.62 1015.82 1015.78 1015.62 1015.70 1016.14 1016.30 1016.66 1017.18 1017.42 1017.86 1017.62 1017.62 1017.66 1017.74 1017.82 1017.86 1017.74 1017.42 1016.90 1016.78 1016.50 1016.66 1016.70 1016.62 1016.38 1016.30 1016.62 1016.98 1017.02 1017.10 1017.10 1017.02 1016.94 1017.10 1017.34 1017.50 1017.86
1010.30 1010.38 1010.62 1010.66 1010.58 1010.66 1010.82 1010.90 1010.98 1010.98 1010.98 1011.14 1011.30 1011.30 1011.34 1011.46 1011.66 1012.06 1012.50 1012.58 1012.74 1013.02 1013.22 1013.38 1013.46 1013.62 1013.78 1014.02 1014.14 1014.10 1014.34 1014.66 1014.78 1014.70 1014.90 1015.10 1015.10 1015.06 1015.30 1015.50 1015.54 1015.82 1016.26 1016.34 1017.02 1017.38 1017.62 1017.38 1017.26 1017.34 1017.38 1017.34 1017.38 1017.18 1016.98 1017.06 1016.94 1016.54 1016.62 1016.70 1016.66 1016.58 1016.42 1016.38 1016.34 1016.30 1016.50 1016.94 1016.98 1017.02 1017.34 1017.66 1017.74 1017.82
1010.10 1009.82 1009.82 1010.02 1010.10 1010.22 1010.34 1010.42 1010.54 1010.50 1010.54 1010.62 1010.66 1010.70 1010.86 1011.02 1011.22 1011.54 1011.82 1012.10 1012.34 1012.42 1012.54 1012.62 1012.82 1013.26 1013.54 1013.58 1013.74 1013.94 1014.10 1014.10 1013.94 1013.98 1014.22 1014.38 1014.66 1014.86 1014.90 1015.06 1015.18 1015.46 1015.98 1016.02 1016.26 1016.74 1017.02 1016.82 1016.90 1016.74 1016.82 1016.78 1016.66 1016.74 1016.98 1017.10 1017.02 1016.82 1016.70 1016.50 1016.54 1016.46 1016.30 1016.18 1016.10 1016.10 1016.22 1016.26 1016.62 1017.14 1017.50 1017.70 1017.90 1018.34
1010.34 1010.18 1009.78 1009.62 1009.62 1009.62 1009.66 1009.82 1009.98 1010.14 1010.22 1010.22 1010.26 1010.34 1010.46 1010.50 1010.78 1010.94 1011.06 1011.18 1011.54 1011.90 1012.18 1012.26 1012.54 1012.70 1012.70 1012.98 1013.22 1013.34 1013.42 1013.74 1013.86 1013.82 1013.90 1014.02 1014.26 1014.50 1014.70 1015.14 1015.30 1015.50 1015.50 1015.34 1015.54 1015.94 1015.98 1015.74 1016.14 1016.50 1016.66 1016.86 1016.98 1017.02 1016.98 1016.70 1016.34 1016.14 1016.26 1016.26 1016.26 1016.26 1016.18 1016.02 1015.82 1015.82 1015.86 1016.06 1016.46 1016.82 1017.22 1017.50 1017.74 1018.22
1009.94 1009.86 1009.62 1009.46 1009.42 1009.34 1009.38 1009.38 1009.38 1009.54 1009.66 1009.78 1009.86 1009.90 1010.06 1010.22 1010.22 1010.34 1010.74 1011.02 1011.22 1011.38 1011.54 1011.70 1011.90 1012.14 1012.26 1012.42 1012.66 1012.98 1012.98 1013.10 1013.30 1013.46 1013.58 1013.70 1013.90 1014.34 1014.78 1015.02 1014.86 1015.22 1015.34 1014.82 1014.62 1015.10 1015.62 1016.18 1016.42 1016.42 1016.58 1016.78 1016.78 1016.74 1016.38 1016.30 1016.38 1016.06 1016.22 1016.30 1016.14 1016.10 1015.98 1015.70 1015.50 1015.46 1015.54 1015.78 1016.30 1016.94 1017.38 1017.70 1017.82 1018.06
1009.58 1009.38 1009.26 1009.14 1009.18 1009.14 1009.02 1009.06 1009.10 1009.14 1009.14 1009.22 1009.38 1009.46 1009.62 1009.78 1009.90 1010.26 1010.38 1010.54 1010.62 1010.86 1011.02 1011.18 1011.34 1011.58 1011.70 1011.90 1012.10 1012.30 1012.46 1012.70 1012.86 1012.90 1013.06 1013.34 1013.46 1013.62 1013.98 1014.22 1014.18 1014.30 1014.54 1014.58 1015.06 1015.38 1015.90 1016.18 1016.10 1016.10 1016.30 1016.46 1016.58 1016.54 1016.26 1016.18 1016.38 1016.46 1016.46 1016.22 1016.10 1016.10 1015.94 1015.74 1015.50 1015.34 1015.34 1015.50 1015.58 1015.62 1015.78 1016.18 1016.98 1017.50
1009.02 1009.10 1008.82 1008.66 1008.82 1008.82 1008.70 1008.70 1008.66 1008.66 1008.70 1008.74 1008.78 1008.98 1009.14 1009.26 1009.38 1009.46 1009.58 1009.74 1009.98 1010.18 1010.34 1010.58 1010.86 1011.06 1011.18 1011.34 1011.66 1011.98 1012.06 1012.06 1012.30 1012.50 1012.58 1012.74 1012.94 1013.02 1013.14 1013.42 1013.94 1014.22 1014.42 1014.70 1015.18 1015.66 1016.06 1016.02 1015.94 1015.86 1016.18 1016.26 1016.42 1016.46 1016.26 1016.34 1016.14 1016.26 1016.42 1016.50 1016.54 1016.30 1016.10 1016.10 1015.90 1015.78 1015.74 1015.82 1015.94 1015.94 1015.94 1016.02 1016.10 1016.06
1008.50 1008.46 1008.38 1008.30 1008.22 1008.22 1008.22 1008.26 1008.22 1008.26 1008.38 1008.42 1008.50 1008.58 1008.66 1008.82 1008.82 1008.86 1009.02 1009.14 1009.30 1009.50 1009.86 1010.14 1010.38 1010.58 1010.66 1010.94 1011.30 1011.50 1011.58 1011.74 1011.86 1012.02 1012.18 1012.38 1012.62 1012.82 1013.06 1013.22 1013.62 1013.94 1014.18 1014.54 1014.90 1015.38 1015.94 1015.78 1015.86 1015.90 1016.06 1016.22 1016.38 1016.34 1016.34 1016.46 1016.34 1016.42 1016.54 1016.54 1016.42 1016.46 1016.38 1016.26 1016.22 1016.10 1016.10 1016.10 1016.18 1016.18 1016.06 1016.02 1016.02 1016.02
Wind_Speed
5 5 6 6 5 5 4 5 5 2 3 5 4 4 5 4 3 3 3 3 2 2 1 2 2 2 5 7 5 5 4 4 5 4 4 4 4 3 3 4 5 7 10 8 11 10 8 9 7 8 8 12 17 16 14 13 12 10 10 11 11 10 10 12 12 11 10 10 9 9 8 8 7 7
6 5 4 5 5 4 5 5 4 5 5 4 4 4 3 2 4 3 4 5 2 3 2 1 2 5 7 5 5 4 4 4 5 4 4 4 5 6 4 2 4 8 9 6 8 8 9 11 11 11 10 15 17 15 14 12 11 11 11 10 10 13 13 13 13 12 11 11 10 9 8 8 8 7
5 5 5 4 3 2 3 4 3 1 1 2 4 4 3 3 4 5 4 3 2 1 1 2 2 4 5 5 4 4 3 3 4 3 4 4 7 7 4 4 3 6 8 5 7 7 8 10 12 13 13 16 17 15 14 12 10 10 9 10 13 14 13 14 13 13 12 11 11 10 9 8 8 7
5 5 5 5 4 4 4 4 5 5 4 5 4 4 5 4 3 3 3 5 7 0 3 4 6 5 4 6 5 5 4 3 2 3 3 5 6 4 4 4 4 5 6 6 8 8 8 8 10 12 13 15 17 17 16 13 12 11 11 13 14 14 13 14 14 13 12 12 11 10 10 9 8 8
5 6 6 5 5 5 5 5 4 3 4 4 4 4 4 4 4 5 5 4 8 5 1 3 4 5 4 3 2 5 6 6 5 4 2 3 4 3 2 2 2 3 6 7 5 7 9 7 8 8 12 16 15 14 13 15 14 14 15 15 14 14 13 13 14 13 13 13 12 11 10 10 9 8
4 3 4 3 3 4 5 4 5 5 4 4 4 4 5 5 5 6 5 5 4 8 7 6 2 3 2 4 2 4 6 7 6 6 4 3 4 4 3 3 1 1 3 6 7 5 8 9 9 8 10 14 10 11 12 14 16 16 16 16 15 14 13 12 13 13 13 13 12 11 10 10 9 9
4 3 4 7 3 1 3 3 3 3 4 4 5 5 4 4 4 5 6 4 4 6 8 4 5 3 2 3 5 6 4 4 4 5 5 5 3 3 4 4 2 1 2 4 6 5 6 9 11 9 12 13 12 12 12 13 15 16 17 16 16 14 13 11 12 13 14 14 13 11 10 10 10 10
7 7 6 7 6 5 5 4 3 4 4 4 4 5 4 4 4 4 5 5 4 3 6 3 3 3 4 3 3 4 5 6 5 4 4 4 4 4 4 4 3 3 5 6 7 6 4 7 10 9 12 13 14 14 13 13 14 15 15 15 15 14 12 12 12 12 12 13 12 11 10 11 11 11
5 7 8 8 7 7 6 4 4 4 5 4 4 4 3 3 3 3 3 4 3 4 5 3 1 3 3 2 4 3 5 6 6 5 5 5 6 4 5 5 4 4 4 4 6 9 8 4 6 8 12 15 15 13 13 14 15 15 14 13 13 12 11 11 12 12 11 11 10 11 12 11 10 11
7 8 9 10 9 9 9 8 6 5 6 5 5 5 4 3 3 3 2 1 2 1 2 2 4 2 3 4 4 3 4 6 6 6 7 6 3 5 5 4 4 3 3 5 5 6 8 8 6 7 8 12 15 16 15 16 16 15 14 13 12 11 10 10 12 12 12 12 12 13 13 12 10 10
8 7 5 4 6 7 7 8 9 8 7 6 6 6 6 5 5 4 3 3 2 2 1 2 1 2 2 1 4 3 4 4 3 4 6 7 5 4 5 6 5 2 4 4 4 6 6 7 7 6 3 2 4 6 8 13 15 16 17 16 15 13 11 11 11 11 12 13 14 14 14 13 11 10
8 8 7 7 7 7 7 7 7 8 8 6 6 5 5 5 5 5 4 3 2 1 0 1 2 1 2 3 2 3 3 4 3 3 5 6 6 7 5 2 5 3 4 4 4 6 6 6 7 9 4 5 5 6 6 10 16 18 16 14 14 13 13 12 12 13 13 14 14 14 14 13 11 10
6 6 5 5 6 7 8 9 9 9 8 7 6 5 5 5 5 4 3 3 3 1 1 3 1 2 3 3 3 5 3 4 5 6 5 4 5 5 4 4 3 2 4 4 4 4 5 3 4 4 5 5 6 6 8 3 9 13 14 15 13 13 14 14 13 14 14 14 14 14 13 12 11 10
5 6 6 6 10 10 11 12 12 12 12 10 8 8 7 6 5 5 4 3 3 2 3 4 2 3 5 5 3 2 3 2 3 5 4 5 5 5 4 1 1 1 2 4 5 4 2 4 2 3 3 4 4 5 6 8 9 11 13 12 12 12 12 12 12 12 12 13 13 13 13 12 11 10
7 6 7 6 7 8 9 9 11 11 12 11 10 12 10 8 8 6 5 4 4 4 4 2 2 3 5 5 3 3 4 2 3 3 3 3 4 4 4 4 1 2 1 3 3 3 2 3 4 3 3 3 3 1 4 8 9 13 15 15 15 14 13 13 12 11 12 12 13 13 13 11 10 11
7 7 7 6 5 6 8 8 8 10 11 11 11 12 11 11 9 8 7 5 3 4 4 3 4 3 4 4 3 2 1 2 3 3 3 2 3 4 3 3 4 2 1 1 2 4 2 3 3 2 2 3 3 3 2 6 8 11 13 13 12 13 14 14 14 14 13 13 13 13 12 12 11 11
7 6 6 6 6 6 11 8 7 8 7 7 9 10 11 9 9 8 7 5 4 5 4 5 4 5 3 3 4 3 2 1 3 4 4 4 4 3 4 3 3 2 1 1 1 3 2 1 2 3 1 3 3 4 6 10 10 12 15 15 13 14 15 16 15 15 15 15 14 13 13 12 12 12
8 8 9 8 8 7 8 7 7 7 7 7 5 5 5 6 6 7 8 8 4 5 5 5 5 4 5 5 3 3 3 1 2 4 5 6 6 6 6 6 7 5 1 1 0 2 1 1 1 2 1 2 3 3 7 12 14 14 13 15 15 14 15 15 15 15 15 15 14 14 13 13 12 11
9 10 9 10 10 9 8 7 8 8 8 8 7 7 7 6 6 6 6 6 6 6 5 6 7 6 5 6 4 2 3 3 2 2 4 5 4 4 5 7 4 3 1 2 1 3 1 0 1 2 2 0 1 2 5 10 11 12 12 12 14 15 15 16 16 15 13 13 13 13 12 12 11 11
8 8 9 9 9 10 11 10 13 11 8 8 8 8 7 6 5 6 6 5 4 6 6 6 7 6 5 4 3 2 3 2 2 0 2 2 2 4 5 5 3 1 1 2 2 2 2 1 1 0 1 1 1 1 2 5 8 9 9 9 10 12 14 15 15 15 15 15 15 16 14 14 13 11
8 9 9 10 9 9 10 11 13 13 11 8 9 8 7 6 5 7 6 5 7 8 8 8 8 6 3 2 1 2 3 2 3 2 2 3 1 3 5 5 3 2 2 1 4 3 3 1 1 1 1 1 2 1 2 1 3 7 9 10 11 12 12 13 15 16 15 15 15 15 15 12 12 12
7 9 15 13 10 10 10 11 13 14 12 9 9 8 7 6 7 8 5 2 3 4 5 6 7 6 5 5 4 4 5 5 4 2 2 1 0 4 3 5 4 4 2 3 4 3 2 1 2 1 1 2 2 1 1 2 3 5 5 9 12 12 12 14 15 16 15 15 16 16 16 16 13 9
7 8 10 15 12 11 11 14 14 15 13 10 9 9 8 8 8 9 5 5 5 4 3 4 3 3 4 4 3 3 7 8 5 3 3 1 2 3 4 4 4 5 1 1 5 3 1 1 1 1 0 1 1 1 0 3 3 4 4 5 6 9 10 12 14 16 16 15 15 15 17 19 14 7
7 8 9 11 15 16 14 15 15 16 17 12 9 7 8 8 10 7 5 6 6 5 6 5 4 3 2 1 1 1 1 3 5 5 3 3 3 4 4 4 4 5 2 0 4 0 2 0 0 1 0 1 2 0 1 0 2 3 4 4 5 6 7 8 8 12 16 16 16 15 16 18 15 7
7 8 9 9 13 16 14 15 16 17 18 14 9 9 9 10 7 5 5 6 7 5 4 4 3 2 1 1 1 2 3 3 3 3 4 4 4 4 4 6 6 7 4 2 5 1 1 1 1 1 1 1 1 2 1 1 2 4 4 5 4 5 5 6 7 7 8 14 15 16 16 18 17 11
9 10 9 10 12 16 16 15 16 18 17 16 9 10 13 10 9 7 5 4 4 4 3 3 3 2 2 3 3 3 3 4 3 3 3 4 4 5 6 8 7 7 2 1 7 2 2 2 3 2 1 1 2 1 3 2 2 2 3 5 5 5 6 6 7 7 8 7 7 8 11 16 16 14
9 8 8 9 12 15 16 16 15 15 16 13 11 14 13 11 12 6 5 5 5 4 4 4 4 4 3 4 5 4 4 2 2 3 4 3 3 5 6 8 9 8 0 1 4 3 2 1 2 3 2 2 3 1 2 4 1 1 2 4 4 5 7 7 9 8 7 6 8 12 13 15 17 17
7 7 8 8 12 14 14 14 14 14 13 11 15 13 13 11 9 5 5 5 5 5 4 4 4 5 4 3 4 5 4 4 4 3 3 3 4 5 5 5 7 7 4 2 2 2 2 3 3 2 3 3 5 6 7 2 1 2 2 2 2 4 8 9 9 7 7 8 9 9 7 8 7 9
6 8 10 10 11 12 13 15 14 11 13 15 12 12 9 10 6 7 6 6 5 5 6 6 5 5 5 5 4 2 3 3 2 2 3 3 3 2 2 0 1 2 2 3 3 3 4 4 5 3 3 4 5 6 6 8 3 2 4 4 4 6 7 8 8 9 9 8 9 11 11 10 10 8
2 3 6 9 9 11 13 9 7 8 9 12 10 8 10 7 6 7 7 6 7 7 6 6 6 6 3 2 3 2 2 3 4 2 2 1 0 1 1 2 2 2 2 2 3 3 3 4 4 3 4 5 6 6 7 7 7 3 4 6 2 3 6 8 10 8 10 12 8 7 7 7 9 9
2 2 5 10 13 8 9 9 6 5 5 5 5 5 7 7 6 6 7 10 7 6 5 5 5 3 2 0 0 2 3 4 4 3 3 1 0 2 2 2 3 3 2 1 2 2 3 3 3 4 3 4 5 7 8 7 7 4 4 5 6 7 5 8 9 9 8 6 6 6 6 6 7 9
5 6 5 3 2 4 5 5 4 5 5 6 6 6 6 6 6 6 5 3 3 3 3 3 2 1 2 2 3 3 4 5 4 3 3 3 2 3 3 2 3 1 2 2 2 2 2 1 2 3 4 5 6 6 5 5 6 6 6 6 7 5 4 9 9 8 9 8 6 8 9 10 9 9
4 6 5 4 4 4 6 5 5 4 6 5 5 6 6 6 6 6 6 6 7 6 5 5 5 4 3 4 3 4 4 5 4 3 3 2 4 3 2 4 2 2 3 2 2 0 1 2 2 0 2 3 5 7 6 6 8 9 9 7 7 7 6 6 8 9 9 9 9 8 8 9 9 9
6 7 8 8 8 7 5 6 6 6 6 7 7 5 6 6 6 6 5 6 5 5 6 5 4 4 4 4 4 4 5 3 2 3 4 3 4 4 4 4 5 3 2 3 2 0 1 1 2 1 2 3 5 7 9 9 10 8 9 7 7 8 7 6 7 10 12 12 12 11 9 9 10 8
7 7 8 9 6 7 6 6 7 7 7 7 8 7 6 5 6 6 5 6 5 5 5 5 4 4 5 5 4 5 5 3 2 2 2 3 4 4 5 5 4 3 3 3 2 1 1 0 1 2 2 3 5 4 9 11 8 10 8 8 7 8 8 7 8 8 10 9 8 10 9 8 9 10
8 7 8 8 6 6 6 8 6 6 6 7 7 7 6 6 6 7 7 7 6 5 5 5 5 5 6 5 5 5 4 4 3 3 4 4 4 4 4 5 5 4 3 4 2 2 2 2 1 1 4 5 5 6 3 5 10 8 8 7 6 7 7 7 8 8 10 9 9 10 10 11 12 10
8 8 8 8 8 7 7 7 7 6 7 7 7 7 7 7 7 8 8 6 6 6 7 6 6 6 6 5 5 5 4 5 4 4 4 5 4 5 5 6 6 5 4 4 2 2 3 2 2 1 2 4 5 7 8 5 7 9 8 8 6 6 7 6 7 8 9 11 11 11 12 12 10 11
9 7 8 8 7 7 7 6 6 6 6 6 6 6 7 7 6 6 5 6 7 6 7 7 6 6 6 5 5 5 4 5 3 4 4 4 5 5 7 6 5 4 4 2 2 3 3 3 3 3 3 4 5 7 8 2 2 1 3 4 6 5 4 5 7 9 9 9 11 12 10 9 7 6
8 8 8 8 8 8 7 7 7 8 7 7 7 7 7 7 6 5 7 7 7 7 6 6 6 7 6 6 6 5 5 5 5 4 4 5 6 5 5 5 5 3 3 3 2 3 3 4 5 5 6 5 6 6 5 5 2 4 1 2 3 4 4 7 8 9 9 9 9 6 2 3 5 8
9 8 9 8 7 8 7 6 7 7 7 8 8 8 8 8 7 7 7 7 7 7 7 6 8 6 6 6 6 5 4 6 6 5 5 5 5 5 5 5 5 3 3 4 4 4 5 5 6 6 6 7 6 4 4 3 4 4 5 3 3 3 4 5 8 7 8 8 7 7 6 4 4 3
8 9 9 9 10 10 10 9 7 7 7 7 7 7 7 7 7 8 9 9 8 7 7 7 7 7 7 7 7 7 7 5 5 5 5 5 6 7 6 3 4 4 5 6 5 5 6 5 4 4 2 2 2 2 2 2 3 1 1 3 4 4 5 7 7 7 7 6 8 9 8 8 7 6
9 8 9 9 10 10 10 9 10 10 9 7 7 7 7 7 8 10 9 9 7 7 7 7 7 8 7 6 6 6 7 8 6 6 6 5 5 5 4 6 6 6 6 8 7 4 2 2 3 4 2 2 2 1 3 3 3 3 2 2 3 4 7 8 9 9 6 8 8 4 3 2 4 5
9 10 10 10 8 9 9 9 9 8 9 8 8 7 7 7 7 7 7 7 7 8 8 8 7 8 7 6 6 7 8 7 7 6 6 6 6 6 6 7 7 6 6 4 2 3 3 2 3 4 3 2 1 2 3 3 2 2 2 2 2 2 4 7 6 4 8 10 6 6 9 8 7 6
10 10 11 9 9 9 9 8 9 8 9 8 9 7 8 7 8 8 8 7 7 8 8 7 9 9 9 8 7 7 7 7 6 7 7 5 8 7 6 6 6 5 5 4 4 3 3 3 3 4 3 2 2 2 3 2 2 1 1 1 1 2 2 2 4 7 8 9 9 6 5 5 2 1
7 8 7 7 8 7 7 7 9 9 9 9 8 8 9 7 8 8 8 7 7 8 7 8 6 7 6 5 5 6 6 7 7 5 5 4 6 5 5 5 3 4 3 5 4 3 3 4 2 3 2 1 1 2 1 1 1 0 0 0 0 0 1 1 1 1 1 1 7 9 5 2 3 5
Wind_Direction
211 210 199 207 220 222 209 213 214 187 193 190 193 189 196 186 248 309 298 311 283 302 248 308 303 2 358 351 351 351 10 0 351 341 338 330 325 336 332 294 284 270 261 242 192 198 206 198 187 162 155 162 163 164 165 172 174 180 174 163 163 155 127 134 146 148 142 139 140 136 128 123 123 121
213 206 206 209 218 208 198 215 201 191 204 183 191 203 205 181 237 255 293 300 257 282 324 238 325 341 338 338 336 342 349 360 1 351 340 339 336 336 330 291 270 281 282 253 199 222 206 195 192 186 175 170 168 171 172 178 183 182 178 167 144 128 139 150 155 153 146 143 143 139 135 129 124 123
190 200 212 219 228 38 333 338 345 17 254 229 182 178 181 175 217 241 253 289 287 127 310 313 301 310 316 327 320 326 336 353 1 347 335 328 333 331 339 335 307 285 296 276 245 244 226 200 193 186 181 178 174 176 178 187 182 180 171 141 138 142 148 159 159 156 151 147 146 145 140 134 129 128
194 187 203 207 197 196 188 213 209 212 196 179 169 170 175 181 186 163 215 248 274 235 307 314 307 308 310 316 325 324 325 342 359 338 320 322 322 334 341 339 334 311 302 310 297 274 250 216 196 191 184 184 182 185 182 177 170 168 148 144 148 148 156 163 162 158 154 150 150 148 143 140 137 133
176 190 199 194 190 178 190 213 204 196 185 180 177 167 166 174 186 184 208 244 283 296 113 308 300 312 331 313 319 323 328 332 343 340 317 332 331 327 342 348 3 331 315 311 300 280 271 243 200 205 194 192 187 190 178 165 166 154 152 152 153 155 160 167 165 162 154 152 154 151 146 145 142 137
179 184 204 212 215 206 209 196 195 190 181 174 170 173 172 182 193 197 198 232 261 292 303 308 295 291 323 308 298 325 332 329 333 334 331 343 339 336 339 346 95 94 307 296 297 276 258 257 220 216 223 189 187 200 178 169 163 156 154 155 156 158 164 167 164 163 157 155 157 155 151 147 142 135
25 19 335 310 305 214 232 234 230 198 191 177 176 178 177 177 188 190 203 212 240 277 293 299 305 292 307 290 315 329 323 305 312 317 330 335 342 351 345 356 5 15 334 292 289 283 255 253 255 231 204 193 189 198 183 174 161 154 155 155 156 159 164 165 162 163 160 157 159 157 155 146 144 140
180 175 186 218 235 217 219 209 201 201 180 170 172 170 175 173 171 178 192 208 234 284 297 308 302 315 321 304 305 313 319 337 339 333 315 328 350 4 15 360 360 345 328 331 319 307 276 244 247 237 217 192 190 197 184 168 157 155 154 153 156 159 162 163 160 159 160 159 158 157 150 147 146 145
182 185 200 208 201 204 191 188 187 172 161 158 156 157 146 144 142 145 177 197 216 241 273 301 300 339 309 298 313 354 352 333 330 329 333 336 335 11 26 14 358 321 331 322 316 318 323 311 266 248 229 206 194 193 177 164 156 150 147 149 153 158 158 160 155 154 154 152 147 139 133 135 144 150
198 199 197 204 186 175 184 180 168 153 143 135 133 132 137 135 123 117 111 91 148 199 244 269 303 352 343 328 321 337 345 323 323 330 339 345 27 18 6 17 2 344 344 340 343 345 340 333 302 256 239 248 218 189 174 163 153 145 142 147 154 154 154 159 154 152 147 141 137 135 134 137 147 157
197 208 196 201 202 199 195 169 157 153 143 139 148 158 159 151 139 138 131 143 135 160 294 296 259 294 288 325 313 322 326 305 301 338 342 341 346 4 360 348 355 13 16 28 26 18 8 348 331 349 24 301 316 314 164 153 144 139 148 161 156 152 155 158 150 143 141 141 140 139 140 142 151 162
192 204 195 180 184 191 187 172 156 143 141 142 156 169 147 151 147 146 151 148 149 159 198 236 300 311 289 307 275 290 316 349 346 23 338 331 335 338 347 331 354 9 24 16 0 7 17 19 2 360 85 143 146 141 189 157 147 155 158 148 151 152 151 153 151 149 147 145 145 144 144 147 153 161
193 209 197 188 182 189 185 167 157 163 155 154 161 172 162 158 155 148 156 160 153 142 226 285 247 286 300 290 318 330 335 352 334 315 327 321 327 337 339 25 61 40 26 16 12 10 5 10 13 11 359 4 81 90 91 157 163 152 151 153 150 150 158 159 155 154 152 149 148 147 148 150 154 158
182 202 205 199 195 193 178 167 169 165 165 171 161 166 168 167 162 166 164 170 182 183 227 248 253 295 290 291 294 281 254 296 317 333 358 343 334 343 356 96 94 68 68 42 22 349 10 351 19 43 41 15 57 114 138 167 175 156 141 138 143 156 161 156 155 149 148 150 150 149 150 152 154 151
180 193 202 200 201 195 180 172 174 171 177 183 174 170 179 173 169 167 177 194 175 189 213 222 195 232 271 278 258 243 287 285 312 316 320 315 328 354 357 353 314 115 74 66 13 339 4 348 4 45 75 93 97 127 174 174 164 152 145 150 159 161 154 147 146 151 155 156 154 152 151 152 150 139
184 187 189 196 199 189 183 170 177 183 187 189 185 180 186 193 190 173 168 176 167 193 210 227 231 216 241 268 275 270 214 284 311 311 310 317 333 339 348 329 332 329 275 33 13 333 350 346 342 17 84 119 126 154 162 136 153 150 148 151 152 154 154 155 159 158 160 161 159 154 150 151 148 142
190 185 178 187 202 202 188 174 172 175 188 206 201 190 196 201 198 199 202 189 184 168 183 215 236 210 209 237 250 201 167 154 308 318 326 333 328 323 314 321 311 292 168 88 47 321 323 327 327 326 97 124 124 137 157 157 158 169 160 160 163 168 164 166 162 164 165 166 160 156 153 151 150 145
189 185 182 182 194 197 188 176 170 174 181 181 189 205 210 211 217 215 224 227 233 205 202 195 224 229 174 223 229 179 166 196 296 319 320 326 323 323 318 318 304 306 226 291 248 284 227 295 285 293 42 129 135 158 166 168 173 178 172 169 171 171 170 164 167 169 167 165 160 156 156 151 149 146
190 188 188 189 191 183 190 184 177 175 182 178 188 200 207 217 217 214 216 208 192 200 210 211 223 232 201 231 239 188 204 212 201 238 271 295 303 308 301 290 270 278 246 210 141 301 23 59 268 326 352 77 157 160 175 184 178 178 180 180 176 174 170 167 169 167 164 160 156 152 150 149 147 147
190 187 189 191 191 188 196 198 183 183 174 176 190 200 211 223 233 236 235 224 212 214 210 212 217 224 220 233 235 197 197 167 143 298 300 300 303 305 307 298 313 281 40 261 198 259 262 144 233 320 343 301 251 180 207 187 189 180 180 182 182 180 175 171 166 162 164 166 162 155 157 151 151 150
189 191 194 197 195 192 200 197 184 187 177 186 191 198 205 215 221 249 243 223 218 224 229 239 255 270 280 274 191 164 213 180 140 116 347 324 46 332 308 301 295 299 344 253 216 225 277 134 209 94 356 301 274 222 210 218 188 185 179 180 183 184 180 174 165 167 171 165 160 155 151 153 142 133
200 203 200 199 196 194 202 188 190 190 186 192 193 187 199 204 228 247 236 216 216 212 235 248 252 258 263 255 242 229 208 179 170 162 272 287 20 299 275 286 299 300 266 239 186 178 254 122 173 125 312 283 253 236 186 187 160 164 190 188 188 186 181 177 172 168 171 167 164 161 152 144 139 131
210 214 213 207 201 200 200 191 190 190 192 195 189 188 181 203 219 231 196 195 204 214 216 232 220 232 223 219 215 196 193 184 193 204 231 159 220 270 278 270 306 308 249 272 189 204 155 128 193 139 65 279 261 64 156 178 184 180 185 190 199 196 183 183 180 172 169 168 166 165 159 150 145 150
212 214 216 216 210 208 200 194 194 191 197 194 190 168 184 200 226 218 192 206 196 198 203 224 208 200 132 134 147 205 202 198 208 199 198 200 201 233 258 260 243 258 255 266 184 148 69 325 131 152 38 324 304 54 55 184 197 195 173 176 200 180 177 184 194 188 169 170 173 169 162 155 153 154
196 199 210 215 210 207 202 199 196 192 200 200 179 185 195 206 200 149 184 198 190 184 201 210 202 192 158 164 187 214 222 221 208 204 198 204 200 207 241 258 249 248 233 204 187 244 201 152 166 170 215 252 271 319 304 268 197 191 181 181 176 178 177 189 189 190 182 175 174 170 168 163 164 166
205 205 202 206 207 199 200 200 200 197 198 199 186 201 209 197 162 170 167 159 159 171 175 190 187 188 202 234 238 233 229 228 204 204 205 207 208 211 223 230 237 244 252 147 160 186 144 210 189 160 168 201 250 241 289 268 195 195 178 189 185 166 170 168 179 187 185 178 175 172 175 172 166 171
210 207 201 206 197 191 194 196 198 199 198 190 204 207 206 193 186 171 158 151 158 166 184 185 200 203 208 225 238 241 257 233 198 214 213 213 215 233 235 235 236 244 309 132 190 186 176 239 174 198 222 198 264 270 235 261 254 119 207 193 186 174 180 183 190 185 181 181 178 170 175 182 176 175
206 195 203 202 185 187 188 191 193 197 189 197 209 210 203 188 177 174 154 170 170 164 177 200 206 222 216 221 241 243 238 249 246 240 239 242 236 249 245 231 234 237 241 237 174 195 185 221 222 223 238 232 254 259 273 234 138 175 195 154 204 201 194 190 192 177 176 180 178 173 171 184 185 171
207 206 202 197 187 183 191 199 192 194 200 208 210 209 192 175 172 176 172 169 155 168 201 208 210 225 227 214 228 231 235 255 257 256 256 247 254 240 225 105 85 181 198 177 165 177 200 215 234 222 217 237 239 251 250 266 260 203 184 150 213 206 198 199 190 189 186 178 184 185 189 178 174 174
257 202 193 192 197 199 204 193 182 194 204 210 210 191 175 187 186 186 156 159 170 200 205 199 205 220 195 187 207 213 243 249 253 246 266 264 27 156 147 163 157 163 172 163 167 165 192 202 216 212 229 235 242 250 250 250 250 220 162 198 166 88 199 201 200 188 185 191 186 181 189 178 177 168
30 95 148 187 202 199 193 197 198 200 158 156 185 187 196 197 195 192 177 174 183 197 197 199 216 211 196 115 162 237 232 251 248 217 237 257 294 145 131 179 207 155 122 106 148 143 157 182 195 201 222 246 246 247 258 254 256 217 196 189 167 212 182 192 200 197 183 166 176 173 177 177 188 197
151 191 210 146 79 139 135 161 152 182 177 186 179 194 195 194 197 200 196 180 189 209 188 181 151 163 154 216 228 236 240 244 246 207 210 200 150 139 148 161 234 193 135 106 99 109 113 151 203 203 224 242 253 260 257 253 250 242 223 188 208 219 131 183 192 191 180 172 161 177 190 192 191 193
153 181 191 169 180 163 184 165 187 188 184 196 189 183 189 191 192 192 185 188 203 193 171 197 197 208 186 224 215 226 242 237 227 197 193 174 164 135 171 217 186 174 220 197 146 34 8 51 57 147 231 246 251 254 255 255 249 243 239 217 207 212 198 188 185 182 166 172 189 185 189 197 200 192
178 200 215 211 197 193 178 191 196 193 192 196 195 198 183 187 191 196 196 203 202 174 194 190 183 198 186 222 202 215 230 227 204 193 182 158 163 170 191 214 233 218 178 238 269 99 52 3 4 349 293 252 243 237 235 237 249 249 243 229 211 222 214 181 188 182 180 189 186 185 192 197 201 195
201 208 213 219 208 206 198 205 203 195 191 200 200 197 182 188 192 195 198 207 192 190 191 194 198 187 193 214 203 212 221 210 178 167 180 159 169 198 197 211 222 198 202 222 207 173 125 19 341 346 318 327 320 273 219 227 245 252 258 245 224 228 222 186 181 184 190 188 183 192 200 201 202 201
213 215 218 219 206 199 202 215 209 196 196 201 199 192 180 196 196 193 209 201 179 182 183 195 191 197 203 209 209 214 212 199 188 179 180 185 189 202 209 222 228 215 190 221 191 171 158 157 119 21 329 325 328 318 332 223 225 247 253 252 239 230 222 188 189 187 187 192 191 193 197 200 206 189
224 227 225 227 220 202 213 211 204 201 202 202 199 197 193 198 198 202 210 168 173 190 199 187 199 198 201 202 203 205 199 193 201 184 188 194 196 195 211 229 231 229 215 224 176 167 164 151 143 143 303 309 304 293 282 305 259 239 236 254 259 230 223 185 173 187 197 194 196 198 206 208 205 193
225 222 226 229 223 214 217 216 205 208 208 204 202 199 208 211 199 188 156 168 193 191 192 198 201 195 202 189 195 204 201 209 201 189 188 173 180 202 214 219 220 201 217 181 178 183 181 166 172 176 195 253 283 286 294 295 269 325 185 233 261 268 207 163 181 196 201 201 204 206 208 219 215 193
213 216 218 223 223 222 213 214 208 214 210 203 202 204 204 208 200 168 177 196 191 193 192 199 201 199 195 195 199 198 192 189 203 206 197 193 197 197 203 208 226 196 175 202 167 183 178 197 202 197 201 223 237 244 269 288 265 262 260 184 240 270 231 196 206 211 202 198 213 207 165 61 62 114
229 219 218 218 223 221 221 210 214 214 211 208 208 204 203 207 197 192 193 196 194 196 196 197 203 196 201 199 195 194 199 203 206 201 200 200 194 201 212 206 215 194 183 211 198 194 202 216 207 204 207 223 241 274 293 285 285 276 286 257 176 230 244 223 217 205 211 207 185 178 182 155 148 140
230 231 233 227 230 230 231 228 217 217 218 215 212 211 209 208 201 202 202 201 196 186 192 199 193 196 201 193 189 182 194 205 212 212 205 204 193 195 202 181 205 194 204 228 210 189 203 204 193 134 136 230 262 294 275 265 265 262 285 282 302 311 285 245 234 212 207 174 172 180 179 186 176 155
216 223 232 231 229 228 228 231 230 228 227 216 213 208 205 206 215 214 209 204 190 192 194 198 197 203 204 193 185 182 191 194 203 207 202 201 199 192 183 198 213 210 198 221 218 192 134 104 137 137 150 152 148 197 256 259 275 289 298 299 290 305 336 326 247 228 202 163 155 142 123 106 110 166
214 222 226 229 224 229 227 224 228 226 228 223 220 213 203 207 208 202 200 199 193 192 197 200 197 197 202 194 187 181 186 197 203 206 197 196 198 197 190 202 210 200 200 210 86 113 133 161 156 137 141 173 196 214 259 269 270 280 288 296 313 328 337 354 359 195 182 183 179 177 178 167 153 195
220 223 230 227 221 224 233 224 229 228 229 226 226 216 213 208 204 205 202 197 190 193 196 198 195 193 195 192 182 180 192 199 196 199 200 198 196 203 206 203 191 203 194 167 138 145 151 158 165 143 151 202 187 208 250 270 277 270 281 284 311 341 355 351 12 44 56 53 34 32 72 117 130 200
226 224 224 225 220 217 221 224 228 228 228 230 227 223 223 213 217 209 204 201 201 201 196 197 196 199 196 186 166 191 201 202 196 204 203 194 190 196 202 198 181 188 188 164 147 157 169 163 139 138 154 164 154 225 268 268 284 293 254 243 257 4 338 352 10 32 35 35 8 360 347 176 132 40